www.pogodaiklimat.ru

Погода и климат >> Архив погоды >> Россия >> Краснодарский край >> Тамань


ПОГОДА в Тамани

  • Прогноз погоды в Тамани
  • Монитор погоды в Тамани

АРХИВ ПОГОДЫ в Тамани

Время (UTC), дата Ветер
(напр.,м/с)
 
Видим.   Явления Облачность Т
(С)
Тd
(С)
f
(%)
Тe
(С)
Тes
(С)
Комфортность P
(гПа)
Po
(гПа)
Тmin
(С)
Tmax
(С)
R
(мм)
R24
(мм)
S
(см)
06 19.06 С 1 20 км ясно +26.3 +23.4 84 +36 +47 очень
душно
1012.0 1009.9
09 19.06 СВ 2 20 км ясно +29.6 +15.5 42 +32 +51 опасность
солнечного
удара
1011.3 1009.5
12 19.06 штиль 0 20 км ясно +30.8 +19.3 50 +36 +56 опасность
солнечного
удара
1011.1 1009.3
15 19.06 штиль 0 20 км ясно +29.3 +18.9 54 +35 +39 очень
душно
1009.9 1008.1 +30.8
18 19.06 СВ 1 10 км 1/0
[Cc]
+26.4 +17.6 58 +31 +31 душно 1009.9 1008.1
21 19.06 В 1 10 км ясно +25.7 +19.8 70 +31 +31 очень
душно
1009.8 1008.0
00 20.06 В 2 10 км ясно +23.4 +18.4 74 +30 +30 очень
душно
1009.6 1007.8
03 20.06 СВ 3 20 км 1/0
[Ci fib]
+23.7 +17.3 67 +28 +28 душно 1009.6 1007.8 +23.2
06 20.06 СВ 3 20 км ясно +27.5 +17.5 54 +32 +40 очень
душно
1009.4 1007.6
09 20.06 СВ 3 20 км 1/0
[Ci fib]
+29.1 +19.7 57 +35 +51 опасность
солнечного
удара
1009.3 1007.5
12 20.06 СВ 3 20 км 1/0
[Ci fib]
+30.7 +17.9 46 +35 +47 очень
душно
1008.7 1006.9
15 20.06 штиль 0 20 км ясно +29.7 +19.6 55 +36 +40 очень
душно
1007.8 1006.0 +30.8
18 20.06 штиль 0 10 км ясно +27.4 +19.6 62 +33 +33 очень
душно
1008.8 1006.9
21 20.06 СВ 4 10 км ясно +27.3 +20.2 65 +34 +34 очень
душно
1008.8 1007.0
00 21.06 СВ 4 10 км ясно +26.2 +17.4 58 +30 +30 душно 1008.9 1007.0
03 21.06 СВ 3 20 км 3/0
[Ac cast Ci fib]
+24.7 +15.9 58 +28 +28 душно 1009.8 1007.9 +24.5
06 21.06 С 1 20 км ясно +27.3 +16.0 50 +31 +42 душно 1010.3 1008.5
09 21.06 СВ 3 20 км ясно +29.2 +18.0 51 +34 +49 очень
душно
1010.6 1008.8
12 21.06 СВ 3 20 км ясно +31.1 +18.9 48 +36 +48 очень
душно
1010.6 1008.8
15 21.06 штиль 0 20 км 1/0
[Ac trans]
+30.5 +20.5 55 +37 +41 очень
душно
1010.0 1008.2 +32.2
18 21.06 В 2
{11}
10 км 6/0
[As op]
+27.6 +13.7 42 +29 +29 жарко 1011.0 1009.2
21 21.06 СВ 2 10 км ясно +25.4 +19.1 68 +30 +30 душно 1011.4 1009.6
00 22.06 СВ 3 10 км 8/0
[Ac As]
+26.2 +19.2 65 +31 +31 очень
душно
1011.0 1009.2
03 22.06 СВ 5 20 км 9/9 1000 м
[Sc]
+26.3 +18.5 62 +31 +31 душно 1012.5 1010.7 +24.9
06 22.06 СВ 6-10
{10}
20 км 10/8 1000 м
[Sc Ac trans]
+26.8 +16.1 52 +30 +30 душно 1012.0 1010.2
09 22.06 штиль 0
{10}
20 км слаб. дождь 10/10 600 м
[Frnb Ns]
+25.5 +18.8 66 +30 +30 душно 1013.1 1011.3
12 22.06 штиль 0 20 км слаб. дождь 10/10 600 м
[Frnb Ns]
+24.9 +18.8 69 +30 +30 душно 1012.7 1010.8
15 22.06 штиль 0 20 км {дождь} 10/10 600 м
[Sc]
+25.5 +20.7 75 +32 +32 очень
душно
1011.3 1009.4 +26.9 0.8
18 22.06 штиль 0 10 км {дождь} 10/10 600 м
[Sc]
+25.6 +18.9 66 +31 +31 очень
душно
1011.2 1009.4
21 22.06 штиль 0 10 км 10/10 1000 м
[Sc]
+22.9 +20.3 85 +30 +30 очень
душно
1010.6 1008.8
00 23.06 штиль 0 10 км 10/10 1000 м
[Sc]
+22.0 +19.3 85 +27 +27 душно 1010.3 1008.5
03 23.06 ЮВ 2 20 км 5/5 1000 м
[Sc]
+23.6 +20.6 83 +29 +30 душно 1011.0 1009.2 +21.5
06 23.06 Ю 2 20 км 1/1 600 м
[Cu hum]
+27.4 +19.8 63 +33 +42 очень
душно
1012.1 1010.3
09 23.06 Ю 2 20 км 3/3 1000 м
[Cu med, cong]
+28.5 +19.3 57 +34 +47 очень
душно
1012.4 1010.6
12 23.06 ЮВ 1 20 км 8/8 600 м
[Cb calv]
+28.7 +20.5 61 +35 +39 очень
душно
1012.7 1010.9
15 23.06 В 1 20 км слаб. дождь 9/9 600 м
[Cb calv]
+24.8 +17.5 64 +29 +29 душно 1012.7 1010.8 +30.4 0.5
18 23.06 штиль 0 10 км {дождь} 1/0
[Ci fib]
+23.5 +17.8 70 +28 +28 душно 1012.4 1010.6
21 23.06 штиль 0 10 км 1/0
[Ci fib]
+21.6 +18.6 83 +26 +26 душно 1012.9 1011.0
00 24.06 штиль 0 10 км ясно +20.3 +18.2 88 +24 +24 комфорт 1012.1 1010.2
03 24.06 штиль 0 20 км ясно +20.6 +18.3 87 +24 +25 комфорт 1012.4 1010.5 +19.2
06 24.06 штиль 0 20 км ясно +26.8 +21.4 72 +34 +47 очень
душно
1012.8 1011.0
09 24.06 штиль 0 20 км {дождь} 4/4 1000 м
[Cu med, cong]
+29.0 +19.6 57 +35 +50 очень
душно
1012.7 1010.9
12 24.06 штиль 0 20 км 8/8 600 м
[Cb calv]
+27.0 +20.6 68 +34 +37 очень
душно
1013.1 1011.3
15 24.06 штиль 0 20 км 8/6 600 м
[Cu med, cong Cs]
+26.4 +19.5 66 +32 +33 очень
душно
1013.3 1011.5 +29.5
18 24.06 штиль 0 10 км 4/4 1000 м
[Cu med, cong]
+24.2 +20.4 79 +30 +30 очень
душно
1013.9 1012.0
21 24.06 штиль 0 10 км 3/3 1000 м
[Cu med, cong]
+21.7 +19.7 88 +27 +27 душно 1014.8 1012.9
00 25.06 штиль 0 10 км ясно +20.7 +19.3 92 +25 +25 комфорт 1014.8 1012.9
03 25.06 штиль 0 20 км 3/3 1000 м
[Cu med, cong]
+22.8 +21.4 92 +30 +31 очень
душно
1015.0 1013.2 +20.3
06 25.06 СВ 1
{10}
20 км 3/3 1000 м
[Cu med, cong]
+27.1 +21.8 73 +35 +43 очень
душно
1015.5 1013.7
09 25.06 СВ 1 20 км 6/6 1000 м
[Cu med, cong]
+27.7 +20.5 65 +34 +43 очень
душно
1016.0 1014.1
12 25.06 штиль 0 20 км {ливн. осадки} 6/3 600 м
[Cu med, cong Ac As Ci fib]
+29.5 +22.7 67 +39 +50 очень
душно
1016.2 1014.4
15 25.06 С 1 20 км 6/0
[Ac lent Ci fib]
+27.8 +20.6 65 +35 +37 очень
душно
1016.1 1014.2 +29.7 4
18 25.06 СВ 4 10 км 1/0
[Ci fib]
+27.3 +20.8 68 +34 +34 очень
душно
1016.6 1014.7
21 25.06 СВ 4 10 км ясно +25.7 +20.6 73 +32 +32 очень
душно
1018.0 1016.2
00 26.06 СВ 3 10 км ясно +25.4 +18.8 67 +30 +30 душно 1018.2 1016.3
03 26.06 СВ 4 20 км ясно +25.2 +18.4 66 +30 +30 душно 1018.4 1016.6 +24.9

 

Местоположение метеостанции Тамань (Краснодарский край, Россия): широта 45.22 долгота 36.72 высота над уровнем моря 17 м.

В архиве по умолчанию представлена погода в Тамани за последнюю неделю. Архивные данные за месяц целиком и за предыдущие месяцы, начиная с января 2011 года, Вы можете получить, выбрав интересующий диапазон дат из раскрывающегося списка и нажав кнопку "Ввод!".


*Определитесь, кто Вы:
робот инопланетянин человек

Внимание! Время в таблицах - всемирное. Для получения местного времени необходимо прибавить поправку, которая равна 3 ч.

Смотрите также архив погоды в соседних городах и на ближайших метеорологических станциях:

Погода в Опасном (Крым, Россия) (18 км)
Погода в Керчи (Крым, Россия) (28 км)
Погода в Темрюке (Краснодарский край, Россия) (53 км)
Погода в Анапе (Краснодарский край, Россия) (58 км)
Погода в Мысовом (Крым, Россия) (75 км)
Погода в Новороссийске (Краснодарский край, Россия) (105 км)
Погода в Владиславовке (Крым, Россия) (105 км)
Погода в Крымске (Краснодарский край, Россия) (106 км)
Погода в Феодосии (Крым, Россия) (107 км)
Погода в Славянске-на-Кубани (Краснодарский край, Россия) (110 км)

Пояснения к столбцам:

Ветер - указаны скорость ветра в м/с - средняя за 10 мин, порывы в срок и между сроками (в фигурных скобках) и направление, откуда дует ветер: С - северный, СВ - северо-восточный, В - восточный, ЮВ - юго-восточный, Ю - южный, ЮЗ - юго-западный, З - западный, СЗ - северо-западный.
Видимость - горизонтальная дальность видимости в метрах или километрах. При видимости от 1 до 10 км при отсутствии осадков обычно наблюдается дымка, при ухудшении видимости до 1 км и менее - туман. В сухую погоду видимость может ухудшаться дымом, пылью или мглою.
Явления - указаны атмосферные явления, наблюдавшиеся в срок или в последний час перед сроком; фигурными скобками обозначены явления, наблюдавшиеся между сроками (за 1-3 часа до срока); квадратными скобками обозначены град или гололедные отложения с указанием их диаметра в мм.
Облачность - указаны через наклонную черту общая и нижняя облачность в баллах и высота нижней границы облаков в метрах; квадратными скобками обозначены формы облаков: Ci - перистые, Cs - перисто-слоистые, Cc - перисто-кучевые, Ac - высококучевые, As - высокослоистые, Sc - слоисто-кучевые, Ns - слоисто-дождевые, Cu - кучевые, Cb - кучево-дождевые. Подробнее классификацию облаков см. в Атласе облаков (PDF).
T - Температура воздуха - температура, измеренная на высоте 2 м над землей.
Td - Температура точки росы - температура, при понижении до которой содержащийся в воздухе водяной пар достигнет насыщения.
f - Относительная влажность воздуха - влажноcть воздуха, измеренная на высоте 2 м над землей.
Te - Эффективная температура - температура, которую ощущает одетый по сезону человек в тени. Характеристика душности погоды. При расчете учитывается влияние влажности воздуха и скорости ветра на теплоощущения человека.
Tes - Эффективная температура на солнце - температура, которую ощущает человек, с поправкой на солнечный нагрев. Характеристика знойности погоды. Зависит от высоты солнца над горизонтом, облачности и скорости ветра. Ночью, в пасмурную погоду, а также при ветре 12 м/с и более поправка равна нулю.
P - Атмосферное давление - приведенное к уровню моря атмосферное давление.
Po - Атмосферное давление - измеренное на уровне метеостанции атмосферное давление.
Tmin - Минимальная температура - минимум температуры воздуха на высоте 2 м над землей.
Tmax - Максимальная температура - максимум температуры воздуха на высоте 2 м над землей.
R - Количество осадков - Количество выпавших осадков за период времени, мм. При наведении курсора мыши на число - период времени, за который выпало указанное количество осадков.
R24 - Количество осадков - Количество выпавших осадков за 24 часа, мм.
S - Снежный покров - Высота снежного покрова, см. При наведении курсора мыши на число - состояние снежного покрова и степень покрытия местности в баллах.